This is the latest recevied weather packets stored in our database for station/object KH6HHG. If no packets are shown the sender has not sent any weather packets the latest 10 day(s).
| Time | Temp. | Humidity | Pressure | Rain* | Wind** | Luminosity | Snow |
|---|---|---|---|---|---|---|---|
| 1777922498 | 24.44° C | 76% | 1014.8 hPa | 0 mm | - | - | - |
| 1777922198 | 24.44° C | 77% | 1015 hPa | 0 mm | - | - | - |
| 1777921898 | 24.44° C | 76% | 1015.1 hPa | 0 mm | - | - | - |
| 1777921598 | 23.89° C | 76% | 1015 hPa | 0 mm | - | - | - |
| 1777921298 | 23.89° C | 76% | 1015 hPa | 0 mm | - | - | - |
| 1777920998 | 23.89° C | 77% | 1014.9 hPa | 0 mm | - | - | - |
| 1777920698 | 23.89° C | 77% | 1015 hPa | 0 mm | - | - | - |
| 1777920398 | 23.89° C | 78% | 1015 hPa | 0 mm | - | - | - |
| 1777920098 | 23.33° C | 79% | 1015 hPa | 0 mm | - | - | - |
| 1777919798 | 22.78° C | 80% | 1014.9 hPa | 0 mm | - | - | - |
| 1777919498 | 22.78° C | 82% | 1015.1 hPa | 0 mm | - | - | - |
| 1777919200 | 22.22° C | 82% | 1015.1 hPa | 0 mm | - | - | - |
| 1777918900 | 21.67° C | 83% | 1015.1 hPa | 0 mm | - | - | - |
| 1777918600 | 21.67° C | 84% | 1015.2 hPa | 0 mm | - | - | - |
| 1777918300 | 21.11° C | 84% | 1015.1 hPa | 0 mm | - | - | - |
| 1777918000 | 21.11° C | 85% | 1015.1 hPa | 0 mm | - | - | - |
| 1777917699 | 20.56° C | 84% | 1015.1 hPa | 0 mm | - | - | - |
| 1777917400 | 20° C | 81% | 1015.2 hPa | 0 mm | - | - | - |
| 1777917100 | 20° C | 83% | 1015.3 hPa | 0 mm | - | - | - |
| 1777916799 | 19.44° C | 81% | 1015.3 hPa | 0 mm | - | - | - |
| 1777916499 | 19.44° C | 83% | 1015.3 hPa | 0 mm | - | - | - |
| 1777916199 | 19.44° C | 84% | 1015.2 hPa | 0 mm | - | - | - |
| 1777915900 | 19.44° C | 86% | 1015.2 hPa | 0 mm | - | - | - |
| 1777915600 | 19.44° C | 88% | 1015.1 hPa | 0 mm | - | - | - |
| 1777915299 | 18.89° C | 89% | 1015.1 hPa | 0 mm | - | - | - |
* Rain latest hour (hover to see other rain measurements)
** Current wind speed in m/s (hover to see current wind gust speed)